BEIDOU-3 M18 (C37)

Last updated on Mon Oct 20 2025 00:03:25 GMT+0000 (Coordinated Universal Time)

1 43707U 18093B 25292.07815088 -.00000003 00000+0 00000+0 0 9991 2 43707 54.1748 190.4693 0007003 337.7633 22.2638 1.86230084 47046
UTC large
Height (km)
Speed (km/s)
/
Latitude / Longitude
Inclination (degrees)
Orbital Period (minutes)
Azimuth
Elevation
Range (km)
Doppler Factor

Next 0 passes for location: London (51.5072 / 0.1276)

Sorry there are no passes over London.